FW3668 Weather Reports


time (UTC)temp
F
wind
direction
speed
knots
gust
knots
rain 1hr
in
rain 24hr
in
rain mn
in
humidity
%
barometer
mb
20260505051535 49 208 9.6 21.7 0.00 0.20 0.00 78 1007.2
20260505041511 50 204 10.4 20.9 0.00 0.24 0.00 77 1006.3
20260505040010 50 219 9.6 18.2 0.00 0.24 0.00 77 1006.2
20260505034507 50 216 9.6 20.0 0.00 0.25 0.00 76 1006.0
20260505033007 50 210 11.3 17.4 0.00 0.25 0.00 76 1006.0
20260505031508 51 250 9.6 20.9 0.00 0.25 0.00 75 1005.8
20260505030107 51 209 11.3 18.2 0.00 0.25 0.00 74 1005.5
20260505024607 52 221 10.4 16.5 0.00 0.26 0.25 74 1005.3
20260505023059 52 197 9.6 19.1 0.00 0.26 0.25 73 1005.2
20260505021558 52 229 10.4 17.4 0.00 0.26 0.25 72 1005.1
20260505014552 52 206 9.6 21.7 0.00 0.27 0.25 71 1004.8
20260505013050 52 224 7.0 13.0 0.00 0.27 0.25 70 1004.9
20260505011550 51 218 7.0 12.2 0.00 0.27 0.25 71 1004.9
20260505010107 51 226 7.8 13.9 0.00 0.27 0.25 72 1004.9
20260505004548 51 196 7.0 15.6 0.00 0.30 0.25 73 1004.7
20260505003050 51 238 7.8 18.2 0.00 0.30 0.25 71 1004.8
20260505001547 50 236 8.7 15.6 0.00 0.30 0.25 72 1004.7
20260505000052 50 238 9.6 18.2 0.00 0.30 0.25 70 1004.4
20260504234543 51 236 11.3 21.7 0.00 0.41 0.25 64 1004.1
20260504233049 53 220 9.6 17.4 0.00 0.41 0.25 58 1003.3
20260504231539 53 202 9.6 19.1 0.00 0.41 0.25 58 1002.8
20260504230053 53 234 7.8 17.4 0.00 0.41 0.25 58 1002.7
20260504224556 53 229 7.8 18.2 0.00 0.54 0.25 59 1002.7
20260504223037 53 225 7.8 17.4 0.00 0.54 0.25 60 1002.7
20260504221535 53 214 10.4 20.0 0.00 0.54 0.25 61 1002.4
20260504220032 53 218 7.8 18.2 0.00 0.54 0.25 62 1002.4
20260504214540 52 228 9.6 19.1 0.00 0.65 0.25 64 1002.3
20260504213030 52 235 7.8 15.6 0.00 0.65 0.25 65 1002.2
20260504211529 52 307 9.6 18.2 0.00 0.65 0.25 66 1002.2
20260504210029 52 234 9.6 17.4 0.00 0.65 0.25 66 1002.1
20260504204525 52 236 6.1 16.5 0.00 0.73 0.25 67 1002.0
20260504203024 52 260 10.4 21.7 0.00 0.73 0.25 65 1001.8
20260504201523 52 213 11.3 21.7 0.00 0.73 0.25 63 1001.7
20260504200021 52 300 13.0 26.1 0.00 0.73 0.25 63 1001.4
20260504194516 52 266 10.4 20.9 0.00 0.76 0.25 69 1001.3
20260504193014 51 240 10.4 24.3 0.00 0.76 0.25 70 1000.6
20260504191514 51 280 12.2 26.1 0.00 0.76 0.25 73 1000.3
20260504190011 51 279 11.3 26.9 0.00 0.76 0.25 73 1000.0
20260504184505 50 246 10.4 21.7 0.00 0.79 0.25 75 999.9
20260504183002 50 255 10.4 21.7 0.00 0.79 0.25 78 999.7
20260504181602 48 238 12.2 22.6 0.00 0.79 0.25 80 999.5
20260504180055 48 279 9.6 23.5 0.00 0.79 0.25 82 999.2
20260504174556 46 240 11.3 25.2 0.00 0.79 0.25 83 999.1
20260504173048 46 265 9.6 26.9 0.00 0.79 0.25 85 998.7
20260504171545 46 267 14.8 26.9 0.00 0.79 0.25 85 998.4
20260504120114 38 229 13.9 27.8 0.02 0.69 0.15 93 989.5
20260504081505 38 236 14.8 26.1 0.01 0.65 0.12 96 978.5